Location: Winthrop
(48.4780°N, 120.1850°W)
Time: 16:14:56
(UTC-07:00)

Explorer 7 - Pass Details

Date: 01 February 2023
Orbit: 478 x 657 km, 50.3° (Epoch: 30 March)

Event Time Altitude Azimuth Distance (km) Brightness Sun altitude
Rises 17:52:32 0° 289° (WNW) 2,880 11.5 -9.1°
Reaches altitude 10° 17:54:51 10° 284° (WNW) 1,999 10.7 -9.4°
Maximum altitude 17:59:17 47° 211° (SSW) 850 8.1 -10.2°
Drops below altitude 10° 18:03:52 10° 137° (SE) 2,062 9.5 -10.9°
Sets 18:06:17 0° 132° (SE) 2,980 10.2 -11.3°
